Weather History for Florennes, Belgium

Change the Weather History Date:

Tuesday, November 27, 2012

  Actual Average Record
Temperature  
Mean Temperature 40 °F -  
Max Temperature 44 °F 38 °F 55 °F (2006)
Min Temperature 35 °F 33 °F 26 °F (2010)
Degree Days  
Heating Degree Days 26    
Moisture  
Dew Point 39 °F    
Average Humidity 87    
Maximum Humidity 100    
Minimum Humidity 69    
Precipitation  
Precipitation 0.04 in - - ()
Sea Level Pressure  
Sea Level Pressure 29.63 in    
Wind  
Wind Speed 9 mph ()    
Max Wind Speed 14 mph    
Max Gust Speed -    
Visibility 7.2 miles    
Events Rain    
Averages and records for this station are not official NWS values.
T = Trace of Precipitation, MM = Missing Value Source: Averaged Metar Reports

Daily Weather History Graph

Daily Weather History Graph

Search for Another Location

Airport:

Trip Planner

Search our weather history database for the weather conditions in past years. The results will help you decide how hot, cold, wet, or windy it might be!

Date:

Astronomy

Nov. 27, 2012 Rise Set
Actual Time 8:14 AM CET 4:43 PM CET
Civil Twilight 7:36 AM CET 5:21 PM CET
Nautical Twilight 6:56 AM CET 6:01 PM CET
Astronomical Twilight 6:17 AM CET 6:40 PM CET
Moon 4:07 PM CET 7:01 AM CET
Length of Visible Light 9h 44m
Length of Day
8h 29m
Waxing Gibbous, 99% of the Moon is Illuminated
Nov 27
Waxing Gibbous
Nov 28
Full
Dec 6
Last Quarter
Dec 13
New
Dec 20
First Quarter

Hourly Weather History & Observations

Time (CET) Temp. Windchill Dew Point Humidity Pressure Visibility Wind Dir Wind Speed Gust Speed Precip Events Conditions
12:25 AM 44.6 °F 38.1 °F 39.2 °F 81% 29.59 in 6.2 mi SSW 13.8 mph - N/A   Mostly Cloudy
12:55 AM 44.6 °F 38.4 °F 39.2 °F 81% 29.59 in 6.2 mi SW 12.7 mph - N/A   Mostly Cloudy
1:00 AM 45 °F - 39 °F 72% 29.62 in 16 mi SW 13.4 mph - -   Mostly Cloudy
1:25 AM 44.6 °F 38.4 °F 39.2 °F 81% 29.59 in 6.2 mi SW 12.7 mph - N/A   Mostly Cloudy
1:55 AM 44.6 °F 38.1 °F 39.2 °F 81% 29.59 in 6.2 mi SW 13.8 mph - N/A   Mostly Cloudy
2:25 AM 44.6 °F 38.1 °F 39.2 °F 81% 29.59 in 6.2 mi SSW 13.8 mph - N/A   Mostly Cloudy
2:55 AM 44.6 °F 39.2 °F 39.2 °F 81% 29.59 in 6.2 mi SW 10.4 mph - N/A   Mostly Cloudy
3:25 AM 44.6 °F 39.2 °F 39.2 °F 81% 29.59 in 6.2 mi SSW 10.4 mph - N/A   Mostly Cloudy
3:55 AM 44.6 °F 38.1 °F 39.2 °F 81% 29.59 in 6.2 mi SW 13.8 mph - N/A   Mostly Cloudy
4:00 AM 44 °F - 39 °F 76% 29.61 in 16 mi SSW 11.2 mph - -   Mostly Cloudy
4:25 AM 44.6 °F 38.4 °F 39.2 °F 81% 29.59 in 6.2 mi SSW 12.7 mph - N/A   Mostly Cloudy
4:55 AM 44.6 °F 38.8 °F 39.2 °F 81% 29.59 in 6.2 mi SSW 11.5 mph - N/A   Mostly Cloudy
5:25 AM 42.8 °F 37.0 °F 39.2 °F 87% 29.56 in 6.2 mi SSW 10.4 mph - N/A   Mostly Cloudy
5:55 AM 42.8 °F 37.0 °F 39.2 °F 87% 29.59 in 6.2 mi SSW 10.4 mph - N/A   Mostly Cloudy
6:25 AM 42.8 °F 37.0 °F 39.2 °F 87% 29.56 in 6.2 mi SSW 10.4 mph - N/A   Mostly Cloudy
6:55 AM 42.8 °F 37.5 °F 39.2 °F 87% 29.56 in 6.2 mi SSW 9.2 mph - N/A   Light Drizzle
7:00 AM 43 °F - 39 °F 81% 29.61 in 16 mi SSW 8.9 mph - - Rain Light Drizzle
7:25 AM 42.8 °F 36.6 °F 39.2 °F 87% 29.59 in 6.2 mi SSW 11.5 mph - N/A   Mostly Cloudy
7:55 AM 42.8 °F 37.0 °F 39.2 °F 87% 29.59 in 6.2 mi SSW 10.4 mph - N/A   Mostly Cloudy
8:25 AM 42.8 °F 36.6 °F 37.4 °F 81% 29.59 in 6.2 mi SSW 11.5 mph - N/A   Mostly Cloudy
8:55 AM 42.8 °F 36.2 °F 37.4 °F 81% 29.59 in 6.2 mi SSW 12.7 mph - N/A   Mostly Cloudy
9:25 AM 42.8 °F 36.2 °F 35.6 °F 76% 29.59 in 6.2 mi SSW 12.7 mph - N/A   Mostly Cloudy
9:55 AM 42.8 °F 37.5 °F 35.6 °F 76% 29.59 in 6.2 mi SSW 9.2 mph - N/A   Mostly Cloudy
10:00 AM 43 °F - 36 °F 69% 29.64 in 16 mi SSW 8.9 mph - -   Mostly Cloudy
10:25 AM 42.8 °F 37.0 °F 37.4 °F 81% 29.62 in 6.2 mi SSW 10.4 mph - N/A   Mostly Cloudy
10:55 AM 44.6 °F 39.2 °F 37.4 °F 76% 29.62 in 6.2 mi SSW 10.4 mph - N/A   Mostly Cloudy
11:25 AM 44.6 °F 38.8 °F 37.4 °F 76% 29.62 in 6.2 mi SSW 11.5 mph - N/A   Mostly Cloudy
11:48 AM 44.6 °F 39.2 °F 39.2 °F 81% 29.62 in 3.7 mi SSW 10.4 mph - N/A Rain Light Rain Showers
11:55 AM 42.8 °F 37.5 °F 39.2 °F 87% 29.62 in 6.2 mi SSW 9.2 mph - N/A Rain Light Rain Showers
12:25 PM 42.8 °F 38.6 °F 41.0 °F 93% 29.62 in 6.2 mi SSW 6.9 mph - N/A   Mostly Cloudy
12:55 PM 42.8 °F 37.0 °F 39.2 °F 87% 29.62 in 6.2 mi SSW 10.4 mph - N/A Rain Light Rain Showers
1:00 PM 43 °F - 40 °F 84% 29.65 in 16 mi SSW 11.2 mph - - Rain Light Rain Showers
1:25 PM 42.8 °F 38.0 °F 41.0 °F 93% 29.62 in 6.2 mi SSW 8.1 mph - N/A   Mostly Cloudy
1:55 PM 42.8 °F 38.6 °F 39.2 °F 87% 29.62 in 6.2 mi SSW 6.9 mph - N/A   Mostly Cloudy
2:25 PM 42.8 °F 38.6 °F 39.2 °F 87% 29.62 in 6.2 mi SW 6.9 mph - N/A   Mostly Cloudy
2:55 PM 42.8 °F 37.5 °F 39.2 °F 87% 29.62 in 6.2 mi SW 9.2 mph - N/A   Mostly Cloudy
3:25 PM 42.8 °F 38.0 °F 39.2 °F 87% 29.62 in 6.2 mi SSW 8.1 mph - N/A   Mostly Cloudy
3:55 PM 42.8 °F 39.3 °F 41.0 °F 93% 29.62 in 6.2 mi SSW 5.8 mph - N/A Rain Light Rain Showers
4:00 PM 42 °F - 40 °F 90% 29.67 in 6 mi SSW 6.7 mph - - Rain Light Rain Showers
4:25 PM 41.0 °F 36.4 °F 39.2 °F 93% 29.62 in 6.2 mi SSW 6.9 mph - N/A Rain Light Rain Showers
4:55 PM 41.0 °F 39.0 °F 39.2 °F 93% 29.65 in 6.2 mi SW 3.5 mph - N/A   Mostly Cloudy
5:25 PM 41.0 °F 38.0 °F 39.2 °F 93% 29.65 in 6.2 mi SSW 4.6 mph - N/A   Mostly Cloudy
5:55 PM 41.0 °F - 39.2 °F 93% 29.65 in 6.2 mi Variable 1.2 mph - N/A   Mostly Cloudy
6:25 PM 41.0 °F - 39.2 °F 93% 29.65 in 6.2 mi Variable 2.3 mph - N/A   Mostly Cloudy
6:34 PM 41.0 °F - 39.2 °F 93% 29.65 in 6.2 mi Variable 1.2 mph - N/A   Mostly Cloudy
6:55 PM 41.0 °F - 39.2 °F 93% 29.65 in 6.2 mi Calm Calm - N/A   Mostly Cloudy
7:00 PM 41 °F - 40 °F 93% 29.69 in 16 mi Calm Calm - -   Partly Cloudy
7:25 PM 41.0 °F - 39.2 °F 93% 29.65 in 6.2 mi Variable 1.2 mph - N/A   Mostly Cloudy
7:55 PM 41.0 °F - 39.2 °F 93% 29.65 in 6.2 mi Variable 2.3 mph - N/A   Mostly Cloudy
8:25 PM 41.0 °F - 39.2 °F 93% 29.65 in 6.2 mi Variable 1.2 mph - N/A   Mostly Cloudy
8:55 PM 41.0 °F - 39.2 °F 93% 29.68 in 6.2 mi Variable 2.3 mph - N/A   Mostly Cloudy
9:25 PM 39.2 °F - 37.4 °F 93% 29.68 in 6.2 mi Variable 2.3 mph - N/A   Scattered Clouds
9:55 PM 39.2 °F - 37.4 °F 93% 29.68 in 6.2 mi Variable 1.2 mph - N/A   Mostly Cloudy
10:00 PM 39 °F - 38 °F 94% 29.73 in 16 mi Calm Calm - -   Mostly Cloudy
10:25 PM 37.4 °F - 37.4 °F 100% 29.68 in 6.2 mi Calm Calm - N/A   Scattered Clouds
10:55 PM 37.4 °F - 35.6 °F 93% 29.68 in 6.2 mi Calm Calm - N/A   Scattered Clouds
11:17 PM 37.4 °F - 37.4 °F 100% 29.68 in 3.1 mi Variable 2.3 mph - N/A   Mostly Cloudy
11:25 PM 35.6 °F - 35.6 °F 100% 29.68 in 2.5 mi Variable 2.3 mph - N/A   Mostly Cloudy
11:55 PM 37.4 °F - 37.4 °F 100% 29.68 in 6.2 mi Calm Calm - N/A   Mostly Cloudy